This is the latest recevied weather packets stored in our database for station/object KQ7A. If no packets are shown the sender has not sent any weather packets the latest 10 day(s).
| Time | Temp. | Humidity | Pressure | Rain* | Wind** | Luminosity | Snow |
|---|---|---|---|---|---|---|---|
| 1777455375 | 2.22° C | 82% | 1021.9 hPa | 0 mm | - | 0 W/m² | - |
| 1777455073 | 2.22° C | 82% | 1021.5 hPa | 0 mm | - | 0 W/m² | - |
| 1777454769 | 2.22° C | 83% | 1021.6 hPa | 0 mm | - | 0 W/m² | - |
| 1777454464 | 2.22° C | 82% | 1021.5 hPa | 0 mm | - | 0 W/m² | - |
| 1777454161 | 2.22° C | 82% | 1021.4 hPa | 0 mm | - | 0 W/m² | - |
| 1777453858 | 1.67° C | 85% | 1021.6 hPa | 0 mm | - | 0 W/m² | - |
| 1777453556 | 1.67° C | 85% | 1021.6 hPa | 0 mm | - | 0 W/m² | - |
| 1777453252 | 1.67° C | 86% | 1022 hPa | 0 mm | - | 0 W/m² | - |
| 1777452949 | 1.67° C | 87% | 1021.9 hPa | 0 mm | - | 0 W/m² | - |
| 1777452646 | 2.22° C | 85% | 1021.9 hPa | 0 mm | - | 0 W/m² | - |
| 1777452342 | 2.78° C | 82% | 1021.6 hPa | 0 mm | - | 0 W/m² | - |
| 1777452038 | 2.22° C | 82% | 1021.6 hPa | 0 mm | - | 0 W/m² | - |
| 1777451734 | 2.22° C | 82% | 1021.8 hPa | 0 mm | - | 0 W/m² | - |
| 1777451430 | 1.67° C | 86% | 1022 hPa | 0 mm | - | 0 W/m² | - |
| 1777451125 | 1.67° C | 88% | 1021.6 hPa | 0 mm | - | 0 W/m² | - |
| 1777450822 | 1.67° C | 89% | 1021.9 hPa | 0 mm | - | 0 W/m² | - |
| 1777450516 | 1.67° C | 88% | 1021.9 hPa | 0 mm | - | 0 W/m² | - |
| 1777450214 | 1.67° C | 88% | 1022 hPa | 0 mm | - | 0 W/m² | - |
| 1777449910 | 1.67° C | 88% | 1021.9 hPa | 0 mm | - | 0 W/m² | - |
| 1777449607 | 1.67° C | 88% | 1022.1 hPa | 0 mm | - | 0 W/m² | - |
| 1777449302 | 1.67° C | 87% | 1021.9 hPa | 0 mm | - | 0 W/m² | - |
| 1777448997 | 2.22° C | 86% | 1022.1 hPa | 0 mm | - | 0 W/m² | - |
| 1777448695 | 2.22° C | 85% | 1021.8 hPa | 0 mm | - | 0 W/m² | - |
| 1777448392 | 2.22° C | 83% | 1021.9 hPa | 0 mm | - | 0 W/m² | - |
| 1777448088 | 2.78° C | 81% | 1021.8 hPa | 0 mm | - | 0 W/m² | - |
* Rain latest hour (hover to see other rain measurements)
** Current wind speed in m/s (hover to see current wind gust speed)